Vorticity
nan nan nan nan nan nan nan nan nan nan nan nan nan nan nan nan nan nan nan nan nan nan nan nan nan nan nan nan nan nan nan nan nan nan nan nan nan nan nan nan nan nan nan
nan 8 8 9 9 9 9 10 9 10 10 9 9 9 8 8 10 9 8 8 9 8 8 7 6 8 9 8 9 10 9 10 12 9 8 7 8 9 9 8 7 7 nan
nan 10 9 8 7 9 9 10 10 9 9 10 9 9 7 8 9 10 11 10 8 8 8 9 9 9 7 9 10 9 9 11 13 10 8 8 7 9 11 6 7 7 nan
nan 10 11 12 9 9 10 10 10 9 7 8 9 9 9 10 9 9 10 10 9 10 11 11 10 11 11 9 8 10 10 11 10 10 9 10 8 9 9 8 9 6 nan
nan 11 11 10 11 11 11 11 10 9 6 8 9 9 11 9 11 11 9 8 9 9 10 11 12 14 12 13 13 12 10 8 9 8 9 10 9 9 9 9 10 10 nan
nan 10 12 11 11 11 10 9 9 10 10 9 9 9 7 11 15 11 8 8 10 9 9 10 10 9 8 11 12 12 15 14 10 9 10 9 10 9 8 9 10 11 nan
nan 11 10 12 11 9 8 8 10 10 10 9 9 9 9 14 15 11 6 7 9 9 8 7 7 9 8 5 5 6 6 8 13 14 10 9 10 9 10 9 8 9 nan
nan 8 9 11 11 11 8 8 8 8 8 8 9 9 9 15 15 7 5 7 9 10 9 8 9 9 8 7 4 4 6 6 10 12 13 12 11 11 9 9 10 11 nan
nan 8 10 10 10 11 10 8 8 7 8 10 10 10 9 14 13 5 5 5 9 8 9 10 9 10 11 5 6 7 8 8 6 7 9 10 8 9 14 14 10 12 nan
nan 11 9 10 10 10 10 9 9 10 9 10 11 11 12 14 11 4 2 7 9 8 9 11 10 12 9 4 7 8 7 8 6 4 3 4 6 6 10 14 12 12 nan
nan 12 12 12 10 9 9 9 10 10 9 10 11 12 11 12 14 10 2 4 9 9 9 9 16 15 7 6 7 12 13 9 7 8 8 7 8 7 7 9 10 12 nan
nan 11 10 9 9 11 10 10 9 8 9 9 10 9 10 14 15 11 5 7 9 8 9 11 19 15 9 8 13 16 9 5 7 8 8 8 9 9 8 9 10 10 nan
nan 11 9 9 11 11 8 7 10 9 8 9 9 9 10 11 16 15 6 6 5 6 13 15 14 10 7 10 13 5 2 6 9 9 9 8 8 9 12 12 9 10 nan
nan 11 9 9 9 6 8 9 10 9 9 11 10 10 10 9 10 10 11 12 7 10 13 10 8 6 6 9 6 4 7 9 9 10 9 9 10 9 9 10 9 11 nan
nan 10 8 9 10 9 10 10 11 12 11 11 12 12 10 11 14 13 9 9 11 12 7 8 9 8 8 6 6 8 9 9 9 9 9 9 9 9 9 9 9 10 nan
nan 9 10 11 9 10 11 12 14 15 13 14 12 8 11 18 19 11 8 10 12 5 2 8 8 8 8 8 7 8 8 9 9 9 9 9 9 9 8 9 8 9 nan
nan 10 10 11 11 10 11 12 9 12 14 13 11 11 13 13 11 10 11 11 7 -4 2 10 9 10 9 9 9 9 10 10 9 9 9 9 9 10 8 7 8 9 nan
nan 10 8 10 10 11 11 10 12 12 9 12 13 12 12 13 12 12 10 2 3 5 8 10 10 10 10 10 10 10 10 11 10 9 9 9 9 9 9 8 8 9 nan
nan 11 11 11 12 12 11 11 12 11 11 10 11 14 16 15 13 12 2 -1 9 9 9 10 11 11 11 10 10 11 11 10 10 9 9 10 10 9 9 9 9 9 nan
nan 12 10 10 11 11 11 11 11 11 10 10 10 10 12 11 11 10 7 10 10 10 11 11 11 11 11 11 10 10 10 10 10 10 10 10 10 10 10 10 9 10 nan
nan 12 9 9 12 10 11 11 10 10 10 10 11 15 12 6 10 10 10 10 10 10 11 11 11 11 11 11 10 11 10 10 11 11 11 11 11 10 10 10 11 10 nan
nan 12 11 11 11 12 11 11 11 10 11 10 12 18 9 5 12 11 10 10 11 10 11 12 11 12 12 11 11 11 11 11 11 12 11 11 11 11 11 10 10 10 nan
nan 12 11 11 12 11 10 11 11 11 11 11 11 12 9 9 11 11 11 11 12 11 11 11 10 11 12 12 12 12 12 12 13 13 13 12 11 12 11 11 11 10 nan
nan 11 10 11 12 11 11 11 12 12 11 11 11 11 11 10 11 11 11 12 12 12 11 12 13 12 11 12 12 13 14 16 17 18 15 12 12 12 11 11 11 11 nan
nan 11 12 12 11 11 12 11 11 11 11 11 11 11 11 11 12 12 11 11 13 13 12 12 15 17 15 13 14 16 17 17 15 15 14 14 14 11 9 11 11 11 nan
nan nan nan nan nan nan nan nan nan nan nan nan nan nan nan nan nan nan nan nan nan nan nan nan nan nan nan nan nan nan nan nan nan nan nan nan nan nan nan nan nan nan nan
CAPE
0 3 0 0 0 0 0 0 0 0 0 0 0 0 0 0 0 0 0 0 0 0 0 0 0 0 0 0 0 0 0 0 0 0 0 0 0 0 0 0 0 0 2
0 1 0 0 0 0 0 0 0 0 0 0 0 0 0 0 0 0 0 0 0 0 0 0 0 0 0 0 0 0 0 0 0 0 0 0 0 0 0 0 0 0 0
1 1 1 0 0 0 0 0 0 0 0 0 0 0 0 0 0 0 0 0 0 1 0 0 1 0 0 0 0 0 0 0 0 0 0 0 0 0 0 0 0 0 0
0 0 0 0 0 0 0 0 0 0 0 0 0 0 0 0 0 1 1 0 0 0 0 0 0 1 1 0 0 0 0 0 0 0 0 0 0 0 0 0 0 5 0
0 0 0 0 0 0 0 0 0 0 0 0 0 1 1 0 0 0 0 0 0 0 0 0 0 0 0 0 0 0 0 0 0 0 0 0 1 0 0 1 1 5 4
0 0 0 0 0 0 0 0 0 0 0 0 0 0 0 0 0 0 0 0 0 0 0 0 0 0 0 0 0 0 0 0 0 0 0 0 0 1 2 1 1 0 0
0 0 0 0 0 0 0 0 0 0 0 0 0 0 0 0 0 0 0 0 0 0 0 0 0 0 0 0 0 0 0 0 0 0 0 1 3 1 0 0 0 0 0
0 0 0 0 0 0 0 0 0 0 0 1 1 1 0 0 0 0 0 0 0 0 0 0 0 0 0 0 0 0 0 0 0 0 0 0 0 0 0 0 0 0 0
0 0 0 0 0 0 0 0 0 1 3 3 1 1 1 3 4 2 0 0 0 0 0 0 0 0 0 0 0 0 1 3 3 2 1 0 0 0 0 0 0 0 0
1 0 0 0 0 0 0 0 1 2 0 1 1 1 0 2 7 4 0 0 0 0 0 0 0 0 0 0 0 0 0 6 1 0 0 0 0 0 0 0 0 0 0
0 0 0 0 0 0 0 0 0 0 0 6 10 12 7 10 14 2 0 0 0 0 0 0 0 0 0 0 0 0 1 2 0 0 0 0 0 0 0 0 0 3 2
0 0 0 0 0 1 0 3 1 3 8 9 9 12 18 19 4 1 0 0 0 0 0 1 3 2 1 0 0 0 0 0 1 1 0 0 0 0 1 0 0 0 0
0 0 0 0 3 1 3 3 3 6 5 4 3 6 15 19 31 2 0 0 0 0 0 0 0 0 0 0 1 0 0 0 0 0 0 1 0 0 0 0 0 0 0
1 2 5 2 3 1 2 6 4 8 8 0 2 7 21 24 21 20 13 6 0 0 0 3 7 2 1 4 4 0 0 0 0 0 1 1 0 0 1 0 0 0 0
1 3 1 2 1 3 3 3 2 3 0 2 7 11 17 17 15 5 7 11 3 1 4 5 6 6 6 10 5 0 0 0 0 0 0 0 0 0 0 0 0 0 0
3 1 2 2 5 3 3 6 0 0 0 0 0 2 7 1 2 2 2 1 0 0 3 7 9 9 7 8 8 3 2 0 1 0 0 0 0 0 0 0 0 0 0
2 3 2 2 1 3 5 4 6 6 0 0 0 0 0 0 2 7 3 4 1 0 1 5 6 7 5 2 3 6 4 1 0 0 0 0 0 0 0 0 0 0 0
1 0 2 5 6 4 7 8 10 8 14 13 3 1 0 0 2 8 9 6 9 3 1 2 4 4 1 0 1 1 1 1 0 0 0 0 0 0 0 0 0 0 0
4 4 6 5 5 7 8 8 9 10 9 5 5 5 2 0 1 7 9 11 9 4 3 1 1 0 0 0 1 2 4 3 1 1 0 0 2 0 1 0 0 0 0
0 0 1 3 9 7 8 8 10 10 10 4 6 6 5 8 20 27 22 16 10 7 5 1 0 0 0 0 3 6 7 5 2 1 1 3 4 2 3 2 3 2 0
3 5 1 3 6 5 5 5 7 7 6 6 6 4 2 5 10 16 18 16 11 6 4 1 0 1 1 2 1 5 3 5 1 0 0 0 3 2 1 4 4 1 0
3 3 5 4 4 4 5 4 5 2 1 2 7 6 2 11 5 6 11 13 15 4 3 3 2 1 0 0 2 4 3 5 5 1 1 1 2 1 4 4 3 2 2
2 4 3 3 3 3 4 1 2 1 1 1 1 4 4 16 7 7 16 10 10 6 5 3 6 3 3 3 3 2 1 1 1 3 4 5 3 5 4 5 3 3 2
2 3 1 3 4 2 3 2 1 0 1 1 5 10 5 5 14 10 14 8 8 9 8 5 4 3 1 3 3 3 1 3 3 4 3 4 3 1 2 2 2 0 0
3 5 5 3 2 5 3 1 1 1 1 2 3 7 7 6 7 8 8 7 5 7 5 4 4 1 0 0 0 1 0 0 1 0 2 1 1 0 1 1 0 0 0
0 0 2 2 3 4 4 1 1 2 2 3 3 5 5 5 5 7 6 3 2 2 2 2 1 0 0 0 0 0 0 0 0 0 0 1 0 1 0 0 0 0 0